This is the latest recevied weather packets stored in our database for station/object OM3WYM-13. If no packets are shown the sender has not sent any weather packets the latest 10 day(s).
| Time | Temp. | Humidity | Pressure | Rain* | Wind** | Luminosity | Snow |
|---|---|---|---|---|---|---|---|
| 1777421408 | -1.11° C | 63% | 1024.4 hPa | - | - | - | - |
| 1777420808 | -1.11° C | 63% | 1024.3 hPa | - | - | - | - |
| 1777420208 | -1.11° C | 63% | 1024.3 hPa | - | - | - | - |
| 1777419608 | -1.11° C | 63% | 1024.3 hPa | - | - | - | - |
| 1777419008 | -1.11° C | 62% | 1024.3 hPa | - | - | - | - |
| 1777418408 | -0.56° C | 60% | 1024.3 hPa | - | - | - | - |
| 1777417808 | -0.56° C | 59% | 1024.3 hPa | - | - | - | - |
| 1777417208 | -0.56° C | 59% | 1024.4 hPa | - | - | - | - |
| 1777416608 | 0° C | 57% | 1024.4 hPa | - | - | - | - |
| 1777416008 | 0° C | 56% | 1024.4 hPa | - | - | - | - |
| 1777415408 | 0.56° C | 55% | 1024.4 hPa | - | - | - | - |
| 1777414808 | 0.56° C | 53% | 1024.3 hPa | - | - | - | - |
| 1777414208 | 0.56° C | 53% | 1024.3 hPa | - | - | - | - |
| 1777413608 | 0.56° C | 53% | 1024.4 hPa | - | - | - | - |
| 1777413009 | 1.11° C | 52% | 1024.2 hPa | - | - | - | - |
| 1777412408 | 1.11° C | 52% | 1024.1 hPa | - | - | - | - |
| 1777411808 | 1.11° C | 52% | 1024.1 hPa | - | - | - | - |
| 1777411208 | 1.11° C | 51% | 1024 hPa | - | - | - | - |
| 1777410608 | 1.11° C | 52% | 1024 hPa | - | - | - | - |
| 1777410008 | 1.67° C | 51% | 1023.9 hPa | - | - | - | - |
| 1777409408 | 2.22° C | 50% | 1023.8 hPa | - | - | - | - |
| 1777408808 | 2.22° C | 49% | 1023.6 hPa | - | - | - | - |
| 1777408208 | 2.78° C | 48% | 1023.6 hPa | - | - | - | - |
| 1777407608 | 2.78° C | 47% | 1023.6 hPa | - | - | - | - |
| 1777407008 | 3.33° C | 46% | 1023.4 hPa | - | - | - | - |
* Rain since midnight (hover to see other rain measurements)
** Current wind speed in m/s (hover to see current wind gust speed)